Year,Month,Day,Hour,Minute,Value (Times are PST for temperature in C)
2018,06,17,00,00,18.50
2018,06,17,00,01,18.40
2018,06,17,00,02,18.30
2018,06,17,00,03,18.30
2018,06,17,00,04,18.20
2018,06,17,00,05,18.10
2018,06,17,00,06,18.10
2018,06,17,00,07,18.00
2018,06,17,00,08,18.00
2018,06,17,00,09,18.00
2018,06,17,00,10,17.90
2018,06,17,00,11,17.80
2018,06,17,00,12,17.80
2018,06,17,00,13,17.70
2018,06,17,00,14,17.60
2018,06,17,00,15,17.60
2018,06,17,00,16,17.60
2018,06,17,00,17,17.50
2018,06,17,00,18,17.50
2018,06,17,00,19,17.50
2018,06,17,00,20,17.50
2018,06,17,00,21,17.40
2018,06,17,00,22,17.40
2018,06,17,00,23,17.40
2018,06,17,00,24,17.40
2018,06,17,00,25,17.40
2018,06,17,00,26,17.50
2018,06,17,00,27,17.50
2018,06,17,00,28,17.50
2018,06,17,00,29,17.50
2018,06,17,00,30,17.50
2018,06,17,00,31,17.50
2018,06,17,00,32,17.50
2018,06,17,00,33,17.40
2018,06,17,00,34,17.30
2018,06,17,00,35,17.30
2018,06,17,00,36,17.20
2018,06,17,00,37,17.20
2018,06,17,00,38,17.20
2018,06,17,00,39,17.10
2018,06,17,00,40,17.00
2018,06,17,00,41,16.90
2018,06,17,00,42,16.80
2018,06,17,00,43,16.80
2018,06,17,00,44,16.80
2018,06,17,00,45,16.80
2018,06,17,00,46,16.70
2018,06,17,00,47,16.70
2018,06,17,00,48,16.60
2018,06,17,00,49,16.60
2018,06,17,00,50,16.50
2018,06,17,00,51,16.50
2018,06,17,00,52,16.50
2018,06,17,00,53,16.40
2018,06,17,00,54,16.40
2018,06,17,00,55,16.40
2018,06,17,00,56,16.40
2018,06,17,00,57,16.30
2018,06,17,00,58,16.30
2018,06,17,00,59,16.20
2018,06,17,01,00,16.20
2018,06,17,01,01,16.10
2018,06,17,01,02,16.10
2018,06,17,01,03,16.00
2018,06,17,01,04,16.00
2018,06,17,01,05,15.90
2018,06,17,01,06,15.90
2018,06,17,01,07,15.90
2018,06,17,01,08,15.80
2018,06,17,01,09,15.70
2018,06,17,01,10,15.70
2018,06,17,01,11,15.70
2018,06,17,01,12,15.60
2018,06,17,01,13,15.60
2018,06,17,01,14,15.60
2018,06,17,01,15,15.50
2018,06,17,01,16,15.50
2018,06,17,01,17,15.50
2018,06,17,01,18,15.40
2018,06,17,01,19,15.40
2018,06,17,01,20,15.40
2018,06,17,01,21,15.30
2018,06,17,01,22,15.30
2018,06,17,01,23,15.30
2018,06,17,01,24,15.30
2018,06,17,01,25,15.30
2018,06,17,01,26,15.30
2018,06,17,01,27,15.30
2018,06,17,01,28,15.30
2018,06,17,01,29,15.30
2018,06,17,01,30,15.30
2018,06,17,01,31,15.30
2018,06,17,01,32,15.30
2018,06,17,01,33,15.30
2018,06,17,01,34,15.30
2018,06,17,01,35,15.30
2018,06,17,01,36,15.30
2018,06,17,01,37,15.20
2018,06,17,01,38,15.20
2018,06,17,01,39,15.20
2018,06,17,01,40,15.20
2018,06,17,01,41,15.20
2018,06,17,01,42,15.20
2018,06,17,01,43,15.10
2018,06,17,01,44,15.10
2018,06,17,01,45,15.10
2018,06,17,01,46,15.10
2018,06,17,01,47,15.10
2018,06,17,01,48,15.10
2018,06,17,01,49,15.00
2018,06,17,01,50,15.00
2018,06,17,01,51,15.00
2018,06,17,01,52,15.00
2018,06,17,01,53,15.00
2018,06,17,01,54,14.90
2018,06,17,01,55,14.90
2018,06,17,01,56,14.90
2018,06,17,01,57,14.90
2018,06,17,01,58,14.90
2018,06,17,01,59,14.90
2018,06,17,02,00,14.80
2018,06,17,02,01,14.80
2018,06,17,02,02,14.80
2018,06,17,02,03,14.80
2018,06,17,02,04,14.80
2018,06,17,02,05,14.80
2018,06,17,02,06,14.80
2018,06,17,02,07,14.80
2018,06,17,02,08,14.80
2018,06,17,02,09,14.80
2018,06,17,02,10,14.70
2018,06,17,02,11,14.70
2018,06,17,02,12,14.70
2018,06,17,02,13,14.70
2018,06,17,02,14,14.60
2018,06,17,02,15,14.60
2018,06,17,02,16,14.60
2018,06,17,02,17,14.60
2018,06,17,02,18,14.60
2018,06,17,02,19,14.50
2018,06,17,02,20,14.50
2018,06,17,02,21,14.40
2018,06,17,02,22,14.40
2018,06,17,02,23,14.40
2018,06,17,02,24,14.30
2018,06,17,02,25,14.30
2018,06,17,02,26,14.30
2018,06,17,02,27,14.30
2018,06,17,02,28,14.30
2018,06,17,02,29,14.20
2018,06,17,02,30,14.20
2018,06,17,02,31,14.20
2018,06,17,02,32,14.20
2018,06,17,02,33,14.20
2018,06,17,02,34,14.10
2018,06,17,02,35,14.10
2018,06,17,02,36,14.10
2018,06,17,02,37,14.10
2018,06,17,02,38,14.10
2018,06,17,02,39,14.10
2018,06,17,02,40,14.10
2018,06,17,02,41,14.10
2018,06,17,02,42,14.10
2018,06,17,02,43,14.00
2018,06,17,02,44,14.00
2018,06,17,02,45,14.00
2018,06,17,02,46,14.00
2018,06,17,02,47,13.90
2018,06,17,02,48,13.90
2018,06,17,02,49,13.90
2018,06,17,02,50,13.90
2018,06,17,02,51,13.90
2018,06,17,02,52,13.80
2018,06,17,02,53,13.80
2018,06,17,02,54,13.80
2018,06,17,02,55,13.80
2018,06,17,02,56,13.80
2018,06,17,02,57,13.80
2018,06,17,02,58,13.80
2018,06,17,02,59,13.80
2018,06,17,03,00,13.70
2018,06,17,03,01,13.70
2018,06,17,03,02,13.70
2018,06,17,03,03,13.70
2018,06,17,03,04,13.60
2018,06,17,03,05,13.60
2018,06,17,03,06,13.60
2018,06,17,03,07,13.50
2018,06,17,03,08,13.40
2018,06,17,03,09,13.40
2018,06,17,03,10,13.30
2018,06,17,03,11,13.30
2018,06,17,03,12,13.20
2018,06,17,03,13,13.20
2018,06,17,03,14,13.20
2018,06,17,03,15,13.20
2018,06,17,03,16,13.20
2018,06,17,03,17,13.20
2018,06,17,03,18,13.20
2018,06,17,03,19,13.20
2018,06,17,03,20,13.20
2018,06,17,03,21,13.20
2018,06,17,03,22,13.20
2018,06,17,03,23,13.20
2018,06,17,03,24,13.20
2018,06,17,03,25,13.20
2018,06,17,03,26,13.10
2018,06,17,03,27,13.10
2018,06,17,03,28,13.10
2018,06,17,03,29,13.10
2018,06,17,03,30,13.10
2018,06,17,03,31,13.00
2018,06,17,03,32,13.00
2018,06,17,03,33,13.00
2018,06,17,03,34,12.90
2018,06,17,03,35,12.90
2018,06,17,03,36,12.90
2018,06,17,03,37,12.90
2018,06,17,03,38,12.90
2018,06,17,03,39,12.90
2018,06,17,03,40,12.80
2018,06,17,03,41,12.80
2018,06,17,03,42,12.80
2018,06,17,03,43,12.80
2018,06,17,03,44,12.80
2018,06,17,03,45,12.80
2018,06,17,03,46,12.80
2018,06,17,03,47,12.70
2018,06,17,03,48,12.70
2018,06,17,03,49,12.70
2018,06,17,03,50,12.70
2018,06,17,03,51,12.70
2018,06,17,03,52,12.70
2018,06,17,03,53,12.70
2018,06,17,03,54,12.70
2018,06,17,03,55,12.60
2018,06,17,03,56,12.60
2018,06,17,03,57,12.60
2018,06,17,03,58,12.60
2018,06,17,03,59,12.50
2018,06,17,04,00,12.50
2018,06,17,04,01,12.50
2018,06,17,04,02,12.50
2018,06,17,04,03,12.40
2018,06,17,04,04,12.40
2018,06,17,04,05,12.40
2018,06,17,04,06,12.40
2018,06,17,04,07,12.40
2018,06,17,04,08,12.30
2018,06,17,04,09,12.30
2018,06,17,04,10,12.30
2018,06,17,04,11,12.30
2018,06,17,04,12,12.30
2018,06,17,04,13,12.30
2018,06,17,04,14,12.30
2018,06,17,04,15,12.30
2018,06,17,04,16,12.30
2018,06,17,04,17,12.30
2018,06,17,04,18,12.30
2018,06,17,04,19,12.30
2018,06,17,04,20,12.30
2018,06,17,04,21,12.30
2018,06,17,04,22,12.30
2018,06,17,04,23,12.30
2018,06,17,04,24,12.30
2018,06,17,04,25,12.30
2018,06,17,04,26,12.30
2018,06,17,04,27,12.30
2018,06,17,04,28,12.30
2018,06,17,04,29,12.30
2018,06,17,04,30,12.30
2018,06,17,04,31,12.30
2018,06,17,04,32,12.30
2018,06,17,04,33,12.30
2018,06,17,04,34,12.30
2018,06,17,04,35,12.30
2018,06,17,04,36,12.30
2018,06,17,04,37,12.30
2018,06,17,04,38,12.30
2018,06,17,04,39,12.30
2018,06,17,04,40,12.20
2018,06,17,04,41,12.30
2018,06,17,04,42,12.20
2018,06,17,04,43,12.20
2018,06,17,04,44,12.20
2018,06,17,04,45,12.20
2018,06,17,04,46,12.20
2018,06,17,04,47,12.20
2018,06,17,04,48,12.20
2018,06,17,04,49,12.10
2018,06,17,04,50,12.10
2018,06,17,04,51,12.10
2018,06,17,04,52,12.10
2018,06,17,04,53,12.10
2018,06,17,04,54,12.10
2018,06,17,04,55,12.10
2018,06,17,04,56,12.00
2018,06,17,04,57,12.10
2018,06,17,04,58,12.10
2018,06,17,04,59,12.00
2018,06,17,05,00,12.00
2018,06,17,05,01,12.00
2018,06,17,05,02,12.00
2018,06,17,05,03,12.00
2018,06,17,05,04,12.00
2018,06,17,05,05,12.00
2018,06,17,05,06,11.90
2018,06,17,05,07,11.90
2018,06,17,05,08,11.90
2018,06,17,05,09,11.90
2018,06,17,05,10,11.90
2018,06,17,05,11,11.90
2018,06,17,05,12,11.90
2018,06,17,05,13,11.90
2018,06,17,05,14,11.90
2018,06,17,05,15,11.90
2018,06,17,05,16,11.90
2018,06,17,05,17,11.90
2018,06,17,05,18,11.90
2018,06,17,05,19,11.90
2018,06,17,05,20,11.90
2018,06,17,05,21,11.90
2018,06,17,05,22,11.80
2018,06,17,05,23,11.80
2018,06,17,05,24,11.80
2018,06,17,05,25,11.80
2018,06,17,05,26,11.80
2018,06,17,05,27,11.80
2018,06,17,05,28,11.80
2018,06,17,05,29,11.80
2018,06,17,05,30,11.80
2018,06,17,05,31,11.80
2018,06,17,05,32,11.80
2018,06,17,05,33,11.80
2018,06,17,05,34,11.80
2018,06,17,05,35,11.80
2018,06,17,05,36,11.80
2018,06,17,05,37,11.80
2018,06,17,05,38,11.70
2018,06,17,05,39,11.70
2018,06,17,05,40,11.70
2018,06,17,05,41,11.70
2018,06,17,05,42,11.70
2018,06,17,05,43,11.70
2018,06,17,05,44,11.70
2018,06,17,05,45,11.70
2018,06,17,05,46,11.70
2018,06,17,05,47,11.80
2018,06,17,05,48,11.80
2018,06,17,05,49,11.80
2018,06,17,05,50,11.90
2018,06,17,05,51,11.90
2018,06,17,05,52,11.90
2018,06,17,05,53,11.90
2018,06,17,05,54,12.00
2018,06,17,05,55,12.10
2018,06,17,05,56,12.20
2018,06,17,05,57,12.20
2018,06,17,05,58,12.20
2018,06,17,05,59,12.30
2018,06,17,06,00,12.30
2018,06,17,06,01,12.30
2018,06,17,06,02,12.40
2018,06,17,06,03,12.50
2018,06,17,06,04,12.50
2018,06,17,06,05,12.60
2018,06,17,06,06,12.70
2018,06,17,06,07,12.80
2018,06,17,06,08,12.90
2018,06,17,06,09,13.00
2018,06,17,06,10,13.00
2018,06,17,06,11,13.10
2018,06,17,06,12,13.10
2018,06,17,06,13,13.20
2018,06,17,06,14,13.30
2018,06,17,06,15,13.30
2018,06,17,06,16,13.40
2018,06,17,06,17,13.50
2018,06,17,06,18,13.60
2018,06,17,06,19,13.60
2018,06,17,06,20,13.70
2018,06,17,06,21,13.70
2018,06,17,06,22,13.80
2018,06,17,06,23,13.90
2018,06,17,06,24,13.90
2018,06,17,06,25,14.00
2018,06,17,06,26,14.10
2018,06,17,06,27,14.20
2018,06,17,06,28,14.30
2018,06,17,06,29,14.40
2018,06,17,06,30,14.50
2018,06,17,06,31,14.50
2018,06,17,06,32,14.60
2018,06,17,06,33,14.60
2018,06,17,06,34,14.70
2018,06,17,06,35,14.70
2018,06,17,06,36,14.80
2018,06,17,06,37,14.80
2018,06,17,06,38,14.90
2018,06,17,06,39,15.00
2018,06,17,06,40,15.00
2018,06,17,06,41,15.00
2018,06,17,06,42,15.10
2018,06,17,06,43,15.20
2018,06,17,06,44,15.20
2018,06,17,06,45,15.20
2018,06,17,06,46,15.30
2018,06,17,06,47,15.40
2018,06,17,06,48,15.50
2018,06,17,06,49,15.50
2018,06,17,06,50,15.60
2018,06,17,06,51,15.70
2018,06,17,06,52,15.70
2018,06,17,06,53,15.70
2018,06,17,06,54,15.80
2018,06,17,06,55,15.80
2018,06,17,06,56,15.80
2018,06,17,06,57,15.80
2018,06,17,06,58,15.80
2018,06,17,06,59,15.90
2018,06,17,07,00,15.90
2018,06,17,07,01,16.00
2018,06,17,07,02,16.00
2018,06,17,07,03,16.00
2018,06,17,07,04,16.10
2018,06,17,07,05,16.20
2018,06,17,07,06,16.20
2018,06,17,07,07,16.30
2018,06,17,07,08,16.40
2018,06,17,07,09,16.50
2018,06,17,07,10,16.50
2018,06,17,07,11,16.60
2018,06,17,07,12,16.60
2018,06,17,07,13,16.70
2018,06,17,07,14,16.70
2018,06,17,07,15,16.70
2018,06,17,07,16,16.70
2018,06,17,07,17,16.70
2018,06,17,07,18,16.70
2018,06,17,07,19,16.70
2018,06,17,07,20,16.70
2018,06,17,07,21,16.70
2018,06,17,07,22,16.70
2018,06,17,07,23,16.70
2018,06,17,07,24,16.70
2018,06,17,07,25,16.70
2018,06,17,07,26,16.70
2018,06,17,07,27,16.70
2018,06,17,07,28,16.80
2018,06,17,07,29,16.80
2018,06,17,07,30,16.90
2018,06,17,07,31,16.90
2018,06,17,07,32,17.00
2018,06,17,07,33,17.00
2018,06,17,07,34,17.10
2018,06,17,07,35,17.10
2018,06,17,07,36,17.10
2018,06,17,07,37,17.10
2018,06,17,07,38,17.10
2018,06,17,07,39,17.20
2018,06,17,07,40,17.20
2018,06,17,07,41,17.20
2018,06,17,07,42,17.30
2018,06,17,07,43,17.30
2018,06,17,07,44,17.40
2018,06,17,07,45,17.40
2018,06,17,07,46,17.40
2018,06,17,07,47,17.50
2018,06,17,07,48,17.50
2018,06,17,07,49,17.60
2018,06,17,07,50,17.60
2018,06,17,07,51,17.60
2018,06,17,07,52,17.70
2018,06,17,07,53,17.70
2018,06,17,07,54,17.70
2018,06,17,07,55,17.80
2018,06,17,07,56,17.90
2018,06,17,07,57,18.00
2018,06,17,07,58,18.10
2018,06,17,07,59,18.20
2018,06,17,08,00,18.30
2018,06,17,08,01,18.40
2018,06,17,08,02,18.50
2018,06,17,08,03,18.60
2018,06,17,08,04,18.70
2018,06,17,08,05,18.80
2018,06,17,08,06,18.80
2018,06,17,08,07,18.90
2018,06,17,08,08,19.00
2018,06,17,08,09,19.00
2018,06,17,08,10,19.10
2018,06,17,08,11,19.20
2018,06,17,08,12,19.30
2018,06,17,08,13,19.30
2018,06,17,08,14,19.40
2018,06,17,08,15,19.60
2018,06,17,08,16,19.70
2018,06,17,08,17,19.80
2018,06,17,08,18,19.90
2018,06,17,08,19,19.90
2018,06,17,08,20,20.00
2018,06,17,08,21,20.10
2018,06,17,08,22,20.20
2018,06,17,08,23,20.30
2018,06,17,08,24,20.30
2018,06,17,08,25,20.40
2018,06,17,08,26,20.40
2018,06,17,08,27,20.50
2018,06,17,08,28,20.60
2018,06,17,08,29,20.70
2018,06,17,08,30,20.80
2018,06,17,08,31,20.80
2018,06,17,08,32,20.90
2018,06,17,08,33,21.00
2018,06,17,08,34,21.10
2018,06,17,08,35,21.30
2018,06,17,08,36,21.30
2018,06,17,08,37,21.30
2018,06,17,08,38,21.30
2018,06,17,08,39,21.30
2018,06,17,08,40,21.30
2018,06,17,08,41,21.30
2018,06,17,08,42,21.30
2018,06,17,08,43,21.30
2018,06,17,08,44,21.30
2018,06,17,08,45,21.20
2018,06,17,08,46,21.20
2018,06,17,08,47,21.20
2018,06,17,08,48,21.20
2018,06,17,08,49,21.20
2018,06,17,08,50,21.20
2018,06,17,08,51,21.20
2018,06,17,08,52,21.20
2018,06,17,08,53,21.20
2018,06,17,08,54,21.20
2018,06,17,08,55,21.20
2018,06,17,08,56,21.30
2018,06,17,08,57,21.30
2018,06,17,08,58,21.30
2018,06,17,08,59,21.30
2018,06,17,09,00,21.30
2018,06,17,09,01,21.40
2018,06,17,09,02,21.40
2018,06,17,09,03,21.50
2018,06,17,09,04,21.50
2018,06,17,09,05,21.50
2018,06,17,09,06,21.60
2018,06,17,09,07,21.70
2018,06,17,09,08,21.70
2018,06,17,09,09,21.80
2018,06,17,09,10,21.80
2018,06,17,09,11,21.80
2018,06,17,09,12,21.80
2018,06,17,09,13,21.80
2018,06,17,09,14,21.70
2018,06,17,09,15,21.80
2018,06,17,09,16,21.80
2018,06,17,09,17,21.80
2018,06,17,09,18,21.90
2018,06,17,09,19,21.90
2018,06,17,09,20,21.90
2018,06,17,09,21,21.90
2018,06,17,09,22,21.90
2018,06,17,09,23,21.90
2018,06,17,09,24,21.90
2018,06,17,09,25,21.80
2018,06,17,09,26,21.80
2018,06,17,09,27,21.90
2018,06,17,09,28,21.90
2018,06,17,09,29,22.00
2018,06,17,09,30,22.00
2018,06,17,09,31,22.10
2018,06,17,09,32,22.10
2018,06,17,09,33,22.10
2018,06,17,09,34,22.10
2018,06,17,09,35,22.10
2018,06,17,09,36,22.10
2018,06,17,09,37,22.10
2018,06,17,09,38,22.10
2018,06,17,09,39,22.20
2018,06,17,09,40,22.30
2018,06,17,09,41,22.30
2018,06,17,09,42,22.30
2018,06,17,09,43,22.30
2018,06,17,09,44,22.30
2018,06,17,09,45,22.30
2018,06,17,09,46,22.30
2018,06,17,09,47,22.40
2018,06,17,09,48,22.40
2018,06,17,09,49,22.40
2018,06,17,09,50,22.50
2018,06,17,09,51,22.50
2018,06,17,09,52,22.50
2018,06,17,09,53,22.60
2018,06,17,09,54,22.50
2018,06,17,09,55,22.50
2018,06,17,09,56,22.40
2018,06,17,09,57,22.40
2018,06,17,09,58,22.40
2018,06,17,09,59,22.40
2018,06,17,10,00,22.30
2018,06,17,10,01,22.30
2018,06,17,10,02,22.40
2018,06,17,10,03,22.40
2018,06,17,10,04,22.50
2018,06,17,10,05,22.60
2018,06,17,10,06,22.60
2018,06,17,10,07,22.70
2018,06,17,10,08,22.70
2018,06,17,10,09,22.70
2018,06,17,10,10,22.60
2018,06,17,10,11,22.60
2018,06,17,10,12,22.60
2018,06,17,10,13,22.60
2018,06,17,10,14,22.50
2018,06,17,10,15,22.50
2018,06,17,10,16,22.60
2018,06,17,10,17,22.60
2018,06,17,10,18,22.70
2018,06,17,10,19,22.70
2018,06,17,10,20,22.70
2018,06,17,10,21,22.70
2018,06,17,10,22,22.70
2018,06,17,10,23,22.70
2018,06,17,10,24,22.70
2018,06,17,10,25,22.70
2018,06,17,10,26,22.70
2018,06,17,10,27,22.70
2018,06,17,10,28,22.60
2018,06,17,10,29,22.50
2018,06,17,10,30,22.50
2018,06,17,10,31,22.60
2018,06,17,10,32,22.50
2018,06,17,10,33,22.50
2018,06,17,10,34,22.40
2018,06,17,10,35,22.40
2018,06,17,10,36,22.40
2018,06,17,10,37,22.50
2018,06,17,10,38,22.50
2018,06,17,10,39,22.50
2018,06,17,10,40,22.50
2018,06,17,10,41,22.50
2018,06,17,10,42,22.60
2018,06,17,10,43,22.70
2018,06,17,10,44,22.80
2018,06,17,10,45,22.90
2018,06,17,10,46,23.00
2018,06,17,10,47,23.10
2018,06,17,10,48,23.10
2018,06,17,10,49,23.10
2018,06,17,10,50,23.20
2018,06,17,10,51,23.20
2018,06,17,10,52,23.30
2018,06,17,10,53,23.30
2018,06,17,10,54,23.20
2018,06,17,10,55,23.10
2018,06,17,10,56,23.10
2018,06,17,10,57,23.10
2018,06,17,10,58,23.10
2018,06,17,10,59,23.00
2018,06,17,11,00,23.00
2018,06,17,11,01,23.00
2018,06,17,11,02,23.00
2018,06,17,11,03,23.00
2018,06,17,11,04,23.00
2018,06,17,11,05,23.10
2018,06,17,11,06,23.10
2018,06,17,11,07,23.10
2018,06,17,11,08,23.20
2018,06,17,11,09,23.20
2018,06,17,11,10,23.10
2018,06,17,11,11,23.00
2018,06,17,11,12,23.00
2018,06,17,11,13,23.10
2018,06,17,11,14,23.20
2018,06,17,11,15,23.30
2018,06,17,11,16,23.40
2018,06,17,11,17,23.50
2018,06,17,11,18,23.50
2018,06,17,11,19,23.50
2018,06,17,11,20,23.60
2018,06,17,11,21,23.50
2018,06,17,11,22,23.50
2018,06,17,11,23,23.40
2018,06,17,11,24,23.40
2018,06,17,11,25,23.50
2018,06,17,11,26,23.50
2018,06,17,11,27,23.60
2018,06,17,11,28,23.60
2018,06,17,11,29,23.60
2018,06,17,11,30,23.60
2018,06,17,11,31,23.60
2018,06,17,11,32,23.60
2018,06,17,11,33,23.70
2018,06,17,11,34,23.70
2018,06,17,11,35,23.80
2018,06,17,11,36,23.80
2018,06,17,11,37,23.80
2018,06,17,11,38,23.80
2018,06,17,11,39,23.80
2018,06,17,11,40,23.90
2018,06,17,11,41,23.90
2018,06,17,11,42,24.00
2018,06,17,11,43,24.10
2018,06,17,11,44,24.10
2018,06,17,11,45,24.20
2018,06,17,11,46,24.10
2018,06,17,11,47,24.10
2018,06,17,11,48,24.10
2018,06,17,11,49,24.10
2018,06,17,11,50,24.10
2018,06,17,11,51,24.10
2018,06,17,11,52,24.20
2018,06,17,11,53,24.20
2018,06,17,11,54,24.20
2018,06,17,11,55,24.20
2018,06,17,11,56,24.20
2018,06,17,11,57,24.20
2018,06,17,11,58,24.20
2018,06,17,11,59,24.30
2018,06,17,12,00,24.30
2018,06,17,12,01,24.30
2018,06,17,12,02,24.30
2018,06,17,12,03,24.30
2018,06,17,12,04,24.30
2018,06,17,12,05,24.40
2018,06,17,12,06,24.50
2018,06,17,12,07,24.60
2018,06,17,12,08,24.70
2018,06,17,12,09,24.80
2018,06,17,12,10,24.80
2018,06,17,12,11,24.90
2018,06,17,12,12,25.00
2018,06,17,12,13,25.20
2018,06,17,12,14,25.30
2018,06,17,12,15,25.50
2018,06,17,12,16,25.60
2018,06,17,12,17,25.70
2018,06,17,12,18,25.70
2018,06,17,12,19,25.70
2018,06,17,12,20,25.70
2018,06,17,12,21,25.70
2018,06,17,12,22,25.70
2018,06,17,12,23,25.70
2018,06,17,12,24,25.80
2018,06,17,12,25,25.90
2018,06,17,12,26,26.00
2018,06,17,12,27,26.20
2018,06,17,12,28,26.40
2018,06,17,12,29,26.50
2018,06,17,12,30,26.70
2018,06,17,12,31,26.80
2018,06,17,12,32,26.90
2018,06,17,12,33,27.00
2018,06,17,12,34,27.00
2018,06,17,12,35,27.00
2018,06,17,12,36,26.80
2018,06,17,12,37,26.70
2018,06,17,12,38,26.70
2018,06,17,12,39,26.70
2018,06,17,12,40,26.70
2018,06,17,12,41,26.60
2018,06,17,12,42,26.60
2018,06,17,12,43,26.60
2018,06,17,12,44,26.60
2018,06,17,12,45,26.50
2018,06,17,12,46,26.40
2018,06,17,12,47,26.20
2018,06,17,12,48,26.10
2018,06,17,12,49,26.00
2018,06,17,12,50,26.00
2018,06,17,12,51,26.00
2018,06,17,12,52,26.00
2018,06,17,12,53,26.10
2018,06,17,12,54,26.20
2018,06,17,12,55,26.20
2018,06,17,12,56,26.30
2018,06,17,12,57,26.40
2018,06,17,12,58,26.30
2018,06,17,12,59,26.30
2018,06,17,13,00,26.40
2018,06,17,13,01,26.40
2018,06,17,13,02,26.30
2018,06,17,13,03,26.30
2018,06,17,13,04,26.20
2018,06,17,13,05,26.00
2018,06,17,13,06,25.90
2018,06,17,13,07,25.90
2018,06,17,13,08,25.90
2018,06,17,13,09,25.90
2018,06,17,13,10,25.90
2018,06,17,13,11,26.00
2018,06,17,13,12,26.20
2018,06,17,13,13,26.20
2018,06,17,13,14,26.20
2018,06,17,13,15,26.20
2018,06,17,13,16,26.20
2018,06,17,13,17,26.20
2018,06,17,13,18,26.10
2018,06,17,13,19,26.00
2018,06,17,13,20,25.90
2018,06,17,13,21,25.80
2018,06,17,13,22,25.70
2018,06,17,13,23,25.60
2018,06,17,13,24,25.60
2018,06,17,13,25,25.60
2018,06,17,13,26,25.50
2018,06,17,13,27,25.50
2018,06,17,13,28,25.50
2018,06,17,13,29,25.50
2018,06,17,13,30,25.60
2018,06,17,13,31,25.60
2018,06,17,13,32,25.70
2018,06,17,13,33,25.70
2018,06,17,13,34,25.70
2018,06,17,13,35,25.70
2018,06,17,13,36,25.60
2018,06,17,13,37,25.60
2018,06,17,13,38,25.70
2018,06,17,13,39,25.70
2018,06,17,13,40,25.70
2018,06,17,13,41,25.80
2018,06,17,13,42,25.80
2018,06,17,13,43,25.90
2018,06,17,13,44,26.00
2018,06,17,13,45,26.10
2018,06,17,13,46,26.10
2018,06,17,13,47,26.10
2018,06,17,13,48,26.10
2018,06,17,13,49,26.20
2018,06,17,13,50,26.30
2018,06,17,13,51,26.50
2018,06,17,13,52,26.60
2018,06,17,13,53,26.80
2018,06,17,13,54,26.90
2018,06,17,13,55,27.00
2018,06,17,13,56,27.10
2018,06,17,13,57,27.10
2018,06,17,13,58,27.20
2018,06,17,13,59,27.20
2018,06,17,14,00,27.20
2018,06,17,14,01,27.20
2018,06,17,14,02,27.20
2018,06,17,14,03,27.20
2018,06,17,14,04,27.20
2018,06,17,14,05,27.20
2018,06,17,14,06,27.30
2018,06,17,14,07,27.30
2018,06,17,14,08,27.40
2018,06,17,14,09,27.50
2018,06,17,14,10,27.40
2018,06,17,14,11,27.30
2018,06,17,14,12,27.20
2018,06,17,14,13,27.10
2018,06,17,14,14,27.00
2018,06,17,14,15,26.90
2018,06,17,14,16,26.90
2018,06,17,14,17,26.90
2018,06,17,14,18,27.00
2018,06,17,14,19,27.10
2018,06,17,14,20,27.10
2018,06,17,14,21,27.20
2018,06,17,14,22,27.30
2018,06,17,14,23,27.30
2018,06,17,14,24,27.40
2018,06,17,14,25,27.50
2018,06,17,14,26,27.60
2018,06,17,14,27,27.80
2018,06,17,14,28,27.80
2018,06,17,14,29,27.80
2018,06,17,14,30,27.80
2018,06,17,14,31,27.70
2018,06,17,14,32,27.60
2018,06,17,14,33,27.60
2018,06,17,14,34,27.60
2018,06,17,14,35,27.60
2018,06,17,14,36,27.60
2018,06,17,14,37,27.60
2018,06,17,14,38,27.60
2018,06,17,14,39,27.60
2018,06,17,14,40,27.60
2018,06,17,14,41,27.60
2018,06,17,14,42,27.50
2018,06,17,14,43,27.40
2018,06,17,14,44,27.30
2018,06,17,14,45,27.20
2018,06,17,14,46,27.00
2018,06,17,14,47,26.90
2018,06,17,14,48,26.80
2018,06,17,14,49,26.80
2018,06,17,14,50,26.90
2018,06,17,14,51,27.00
2018,06,17,14,52,27.10
2018,06,17,14,53,27.20
2018,06,17,14,54,27.30
2018,06,17,14,55,27.40
2018,06,17,14,56,27.50
2018,06,17,14,57,27.60
2018,06,17,14,58,27.60
2018,06,17,14,59,27.80
2018,06,17,15,00,27.90
2018,06,17,15,01,27.80
2018,06,17,15,02,27.80
2018,06,17,15,03,27.80
2018,06,17,15,04,27.70
2018,06,17,15,05,27.70
2018,06,17,15,06,27.70
2018,06,17,15,07,27.70
2018,06,17,15,08,27.60
2018,06,17,15,09,27.50
2018,06,17,15,10,27.50
2018,06,17,15,11,27.40
2018,06,17,15,12,27.30
2018,06,17,15,13,27.20
2018,06,17,15,14,27.20
2018,06,17,15,15,27.20
2018,06,17,15,16,27.10
2018,06,17,15,17,27.10
2018,06,17,15,18,27.20
2018,06,17,15,19,27.20
2018,06,17,15,20,27.20
2018,06,17,15,21,27.20
2018,06,17,15,22,27.30
2018,06,17,15,23,27.40
2018,06,17,15,24,27.40
2018,06,17,15,25,27.50
2018,06,17,15,26,27.50
2018,06,17,15,27,27.60
2018,06,17,15,28,27.70
2018,06,17,15,29,27.70
2018,06,17,15,30,27.80
2018,06,17,15,31,27.90
2018,06,17,15,32,27.90
2018,06,17,15,33,28.00
2018,06,17,15,34,28.10
2018,06,17,15,35,28.20
2018,06,17,15,36,28.20
2018,06,17,15,37,28.40
2018,06,17,15,38,28.40
2018,06,17,15,39,28.50
2018,06,17,15,40,28.60
2018,06,17,15,41,28.60
2018,06,17,15,42,28.70
2018,06,17,15,43,28.80
2018,06,17,15,44,28.80
2018,06,17,15,45,28.80
2018,06,17,15,46,28.80
2018,06,17,15,47,28.70
2018,06,17,15,48,28.70
2018,06,17,15,49,28.60
2018,06,17,15,50,28.50
2018,06,17,15,51,28.50
2018,06,17,15,52,28.50
2018,06,17,15,53,28.60
2018,06,17,15,54,28.60
2018,06,17,15,55,28.70
2018,06,17,15,56,28.80
2018,06,17,15,57,28.80
2018,06,17,15,58,28.90
2018,06,17,15,59,29.00
2018,06,17,16,00,29.10
2018,06,17,16,01,29.10
2018,06,17,16,02,29.20
2018,06,17,16,03,29.20
2018,06,17,16,04,29.10
2018,06,17,16,05,29.20
2018,06,17,16,06,29.10
2018,06,17,16,07,29.10
2018,06,17,16,08,29.00
2018,06,17,16,09,29.10
2018,06,17,16,10,29.10
2018,06,17,16,11,29.20
2018,06,17,16,12,29.20
2018,06,17,16,13,29.20
2018,06,17,16,14,29.10
2018,06,17,16,15,29.00
2018,06,17,16,16,28.90
2018,06,17,16,17,28.70
2018,06,17,16,18,28.60
2018,06,17,16,19,28.60
2018,06,17,16,20,28.50
2018,06,17,16,21,28.50
2018,06,17,16,22,28.60
2018,06,17,16,23,28.60
2018,06,17,16,24,28.60
2018,06,17,16,25,28.60
2018,06,17,16,26,28.70
2018,06,17,16,27,28.70
2018,06,17,16,28,28.70
2018,06,17,16,29,28.70
2018,06,17,16,30,28.70
2018,06,17,16,31,28.60
2018,06,17,16,32,28.60
2018,06,17,16,33,28.60
2018,06,17,16,34,28.50
2018,06,17,16,35,28.30
2018,06,17,16,36,28.10
2018,06,17,16,37,28.10
2018,06,17,16,38,28.20
2018,06,17,16,39,28.20
2018,06,17,16,40,28.30
2018,06,17,16,41,28.30
2018,06,17,16,42,28.30
2018,06,17,16,43,28.30
2018,06,17,16,44,28.30
2018,06,17,16,45,28.30
2018,06,17,16,46,28.30
2018,06,17,16,47,28.40
2018,06,17,16,48,28.50
2018,06,17,16,49,28.50
2018,06,17,16,50,28.60
2018,06,17,16,51,28.70
2018,06,17,16,52,28.80
2018,06,17,16,53,28.80
2018,06,17,16,54,28.90
2018,06,17,16,55,28.90
2018,06,17,16,56,29.00
2018,06,17,16,57,29.00
2018,06,17,16,58,29.10
2018,06,17,16,59,29.20
2018,06,17,17,00,29.20
2018,06,17,17,01,29.20
2018,06,17,17,02,29.20
2018,06,17,17,03,29.20
2018,06,17,17,04,29.20
2018,06,17,17,05,29.20
2018,06,17,17,06,29.20
2018,06,17,17,07,29.20
2018,06,17,17,08,29.20
2018,06,17,17,09,29.10
2018,06,17,17,10,29.00
2018,06,17,17,11,28.90
2018,06,17,17,12,28.70
2018,06,17,17,13,28.60
2018,06,17,17,14,28.60
2018,06,17,17,15,28.60
2018,06,17,17,16,28.60
2018,06,17,17,17,28.60
2018,06,17,17,18,28.60
2018,06,17,17,19,28.60